Time,TemperatureF,DewpointF,PressureIn,WindDirection,WindDirectionDegrees,WindSpeedMPH,WindSpeedGustMPH,Humidity,HourlyPrecipIn,Conditions,Clouds,dailyrainin,SolarRadiationWatts/m^2,SoftwareType,DateUTC
2013-12-15 00:01:00,41.5,40.7,29.77,NNW,348,0.0,0.0,97,0.01,RA,,0.00,0.0,WeatherDisplay:10.37,2013-12-15 05:01:00,
2013-12-15 00:06:00,41.5,40.7,29.77,NNW,348,0.0,0.0,97,0.00,RA,,0.00,0.0,WeatherDisplay:10.37,2013-12-15 05:06:00,
2013-12-15 00:11:00,41.5,40.7,29.77,NNW,348,0.0,0.0,97,0.00,OVC,,0.00,0.0,WeatherDisplay:10.37,2013-12-15 05:11:00,
2013-12-15 00:16:00,41.5,40.7,29.77,NNW,348,0.0,0.0,97,0.00,OVC,,0.00,0.0,WeatherDisplay:10.37,2013-12-15 05:16:00,
2013-12-15 00:21:00,41.5,40.7,29.76,NNW,348,0.0,0.0,97,0.00,OVC,,0.00,0.0,WeatherDisplay:10.37,2013-12-15 05:21:00,
2013-12-15 00:26:00,41.4,40.6,29.76,NNW,348,0.0,0.0,97,0.00,OVC,,0.00,0.0,WeatherDisplay:10.37,2013-12-15 05:26:00,
2013-12-15 00:31:00,41.3,40.5,29.76,NNW,348,0.0,0.0,97,0.00,OVC,,0.00,0.0,WeatherDisplay:10.37,2013-12-15 05:31:00,
2013-12-15 00:36:00,41.3,40.5,29.75,NNW,348,0.0,0.0,97,0.00,OVC,,0.00,0.0,WeatherDisplay:10.37,2013-12-15 05:36:00,
2013-12-15 00:41:00,41.3,40.5,29.75,NNW,347,0.0,0.0,97,0.00,OVC,,0.00,0.0,WeatherDisplay:10.37,2013-12-15 05:41:00,
2013-12-15 00:46:00,41.3,40.5,29.75,NNW,345,0.0,0.0,97,0.00,,,0.00,0.0,WeatherDisplay:10.37,2013-12-15 05:46:00,
2013-12-15 00:51:00,41.3,40.5,29.75,NNW,344,0.0,0.0,97,0.00,,,0.00,0.0,WeatherDisplay:10.37,2013-12-15 05:51:00,
2013-12-15 00:56:00,41.3,40.5,29.75,NW,317,0.0,0.0,97,0.00,,,0.00,0.0,WeatherDisplay:10.37,2013-12-15 05:56:00,
2013-12-15 01:01:00,41.3,40.5,29.74,West,279,0.0,0.0,97,0.00,OVC,,0.00,0.0,WeatherDisplay:10.37,2013-12-15 06:01:00,
2013-12-15 01:11:00,41.2,40.4,29.74,West,273,0.0,0.0,97,0.00,OVC,,0.00,0.0,WeatherDisplay:10.37,2013-12-15 06:11:00,
2013-12-15 01:21:00,41.2,40.4,29.75,SSW,201,0.0,0.0,97,0.00,OVC,,0.00,0.0,WeatherDisplay:10.37,2013-12-15 06:21:00,
2013-12-15 01:26:00,41.2,40.4,29.75,SSE,162,0.0,0.0,97,0.00,OVC,,0.00,0.0,WeatherDisplay:10.37,2013-12-15 06:26:00,
2013-12-15 01:31:00,41.2,40.4,29.75,WSW,254,0.0,0.0,97,0.00,OVC,,0.00,0.0,WeatherDisplay:10.37,2013-12-15 06:31:00,
2013-12-15 01:36:00,41.2,40.4,29.74,WNW,292,0.0,0.0,97,0.00,OVC,,0.00,0.0,WeatherDisplay:10.37,2013-12-15 06:36:00,
2013-12-15 01:41:00,41.2,40.4,29.74,West,281,0.0,0.0,97,0.00,OVC,,0.00,0.0,WeatherDisplay:10.37,2013-12-15 06:41:00,
2013-12-15 01:46:00,41.2,40.4,29.76,West,274,0.0,0.0,97,0.00,OVC,,0.00,0.0,WeatherDisplay:10.37,2013-12-15 06:46:00,
2013-12-15 01:51:00,41.2,40.4,29.77,West,273,0.0,0.0,97,0.00,OVC,,0.00,0.0,WeatherDisplay:10.37,2013-12-15 06:51:00,
2013-12-15 01:56:00,41.2,40.4,29.77,West,273,0.0,0.0,97,0.00,OVC,,0.00,0.0,WeatherDisplay:10.37,2013-12-15 06:56:00,
2013-12-15 02:01:00,41.2,40.4,29.76,West,273,0.0,0.0,97,0.00,OVC,,0.00,0.0,WeatherDisplay:10.37,2013-12-15 07:01:00,
2013-12-15 02:11:00,41.2,40.4,29.75,WNW,290,0.0,1.0,97,0.00,OVC,,0.00,0.0,WeatherDisplay:10.37,2013-12-15 07:11:00,
2013-12-15 02:16:00,41.2,40.4,29.74,NW,313,0.0,0.0,97,0.00,OVC,,0.00,0.0,WeatherDisplay:10.37,2013-12-15 07:16:00,
2013-12-15 02:21:00,41.2,40.4,29.74,NW,317,0.0,0.0,97,0.00,OVC,,0.00,0.0,WeatherDisplay:10.37,2013-12-15 07:21:00,
2013-12-15 02:26:00,41.2,40.4,29.74,NW,317,0.0,0.0,97,0.00,OVC,,0.00,0.0,WeatherDisplay:10.37,2013-12-15 07:26:00,
2013-12-15 02:31:00,41.2,40.4,29.74,NW,311,0.0,0.0,97,0.00,OVC,,0.00,0.0,WeatherDisplay:10.37,2013-12-15 07:31:00,
2013-12-15 02:36:00,41.2,40.4,29.74,WNW,303,0.0,0.0,97,0.00,OVC,,0.00,0.0,WeatherDisplay:10.37,2013-12-15 07:36:00,
2013-12-15 02:41:00,41.2,40.4,29.74,WNW,302,0.0,0.0,97,0.00,OVC,,0.00,0.0,WeatherDisplay:10.37,2013-12-15 07:41:00,
2013-12-15 02:46:00,41.2,40.4,29.75,WNW,302,0.0,0.0,97,0.00,OVC,,0.00,0.0,WeatherDisplay:10.37,2013-12-15 07:46:00,
2013-12-15 02:51:00,41.2,40.4,29.75,WNW,302,0.0,0.0,97,0.00,OVC,,0.00,0.0,WeatherDisplay:10.37,2013-12-15 07:51:00,
2013-12-15 02:56:00,41.1,40.4,29.75,WNW,302,0.0,0.0,97,0.00,OVC,,0.00,0.0,WeatherDisplay:10.37,2013-12-15 07:56:00,
2013-12-15 03:01:00,41.1,40.3,29.74,WNW,302,0.0,0.0,97,0.00,OVC,,0.00,0.0,WeatherDisplay:10.37,2013-12-15 08:01:00,
2013-12-15 03:11:00,41.1,40.3,29.74,West,267,0.0,0.0,97,0.00,OVC,,0.00,0.0,WeatherDisplay:10.37,2013-12-15 08:11:00,
2013-12-15 03:16:00,41.1,40.3,29.74,West,259,0.0,0.0,97,0.00,OVC,,0.00,0.0,WeatherDisplay:10.37,2013-12-15 08:16:00,
2013-12-15 03:21:00,41.1,40.3,29.74,West,259,0.0,0.0,97,0.00,OVC,,0.00,0.0,WeatherDisplay:10.37,2013-12-15 08:21:00,
2013-12-15 03:26:00,41.1,40.3,29.74,West,259,0.0,0.0,97,0.00,OVC,,0.00,0.0,WeatherDisplay:10.37,2013-12-15 08:26:00,
2013-12-15 03:31:00,41.1,40.3,29.75,WSW,247,0.0,0.0,97,0.00,OVC,,0.00,0.0,WeatherDisplay:10.37,2013-12-15 08:31:00,
2013-12-15 03:36:00,41.1,40.3,29.75,SW,214,0.0,0.0,97,0.00,OVC,,0.00,0.0,WeatherDisplay:10.37,2013-12-15 08:36:00,
2013-12-15 03:41:00,41.1,40.3,29.75,SSW,210,0.0,0.0,97,0.00,OVC,,0.00,0.0,WeatherDisplay:10.37,2013-12-15 08:41:00,
2013-12-15 03:46:00,40.9,40.1,29.75,WSW,243,0.0,0.0,97,0.00,OVC,,0.00,0.0,WeatherDisplay:10.37,2013-12-15 08:46:00,
2013-12-15 03:51:00,40.9,40.1,29.75,West,261,0.0,0.0,97,0.00,OVC,,0.00,0.0,WeatherDisplay:10.37,2013-12-15 08:51:00,
2013-12-15 03:56:00,40.9,40.1,29.75,West,261,0.0,0.0,97,0.00,OVC,,0.00,0.0,WeatherDisplay:10.37,2013-12-15 08:56:00,
2013-12-15 04:01:00,40.9,40.1,29.75,West,261,0.0,0.0,97,0.00,-RA,,0.00,0.0,WeatherDisplay:10.37,2013-12-15 09:01:00,
2013-12-15 04:11:00,40.9,40.1,29.75,WSW,239,0.0,0.0,97,0.00,-RA,,0.00,0.0,WeatherDisplay:10.37,2013-12-15 09:11:00,
2013-12-15 04:16:00,40.9,40.1,29.73,West,279,0.0,0.0,97,0.01,-RA,,0.01,0.0,WeatherDisplay:10.37,2013-12-15 09:16:00,
2013-12-15 04:21:00,40.9,40.1,29.72,WNW,294,0.0,0.0,97,0.01,-RA,,0.01,0.0,WeatherDisplay:10.37,2013-12-15 09:21:00,
2013-12-15 04:26:00,40.9,40.1,29.72,WNW,294,0.0,0.0,97,0.01,-RA,,0.01,0.0,WeatherDisplay:10.37,2013-12-15 09:26:00,
2013-12-15 04:31:00,40.9,40.1,29.70,WNW,294,0.0,0.0,97,0.01,-RA,,0.01,0.0,WeatherDisplay:10.37,2013-12-15 09:31:00,
2013-12-15 04:36:00,40.9,40.1,29.69,WNW,294,0.0,0.0,97,0.01,-RA,,0.01,0.0,WeatherDisplay:10.37,2013-12-15 09:36:00,
2013-12-15 04:41:00,40.9,40.1,29.69,WNW,288,0.0,0.0,97,0.01,-RA,,0.01,0.0,WeatherDisplay:10.37,2013-12-15 09:41:00,
2013-12-15 04:46:00,40.9,40.1,29.71,West,271,0.0,0.0,97,0.01,-RA,,0.01,0.0,WeatherDisplay:10.37,2013-12-15 09:46:00,
2013-12-15 04:51:00,40.9,40.1,29.72,West,261,0.0,0.0,97,0.01,-RA,,0.01,0.0,WeatherDisplay:10.37,2013-12-15 09:51:00,
2013-12-15 04:56:00,40.9,40.1,29.72,West,261,0.0,0.0,97,0.01,-RA,,0.01,0.0,WeatherDisplay:10.37,2013-12-15 09:56:00,
2013-12-15 05:01:00,41.1,40.3,29.72,West,261,0.0,0.0,97,0.02,RA,,0.02,0.0,WeatherDisplay:10.37,2013-12-15 10:01:00,
2013-12-15 05:11:00,41.1,40.3,29.72,West,261,0.0,0.0,97,0.02,OVC,,0.02,0.0,WeatherDisplay:10.37,2013-12-15 10:11:00,
2013-12-15 05:16:00,41.1,40.3,29.71,West,262,0.0,0.0,97,0.01,OVC,,0.02,0.0,WeatherDisplay:10.37,2013-12-15 10:16:00,
2013-12-15 05:21:00,41.1,40.3,29.70,West,259,0.0,0.0,97,0.01,OVC,,0.02,0.0,WeatherDisplay:10.37,2013-12-15 10:21:00,
2013-12-15 05:26:00,41.1,40.3,29.70,WSW,254,0.0,0.0,97,0.01,OVC,,0.02,0.0,WeatherDisplay:10.37,2013-12-15 10:26:00,
2013-12-15 05:31:00,41.1,40.3,29.72,WSW,247,0.0,0.0,97,0.01,OVC,,0.02,0.0,WeatherDisplay:10.37,2013-12-15 10:31:00,
2013-12-15 05:41:00,41.1,40.3,29.73,WSW,255,0.0,0.0,97,0.01,OVC,,0.02,0.0,WeatherDisplay:10.37,2013-12-15 10:41:00,
2013-12-15 05:46:00,41.1,40.3,29.72,WSW,258,0.0,0.0,97,0.01,OVC,,0.02,0.0,WeatherDisplay:10.37,2013-12-15 10:46:00,
2013-12-15 05:51:00,41.1,40.3,29.72,WSW,258,0.0,0.0,97,0.01,OVC,,0.02,0.0,WeatherDisplay:10.37,2013-12-15 10:51:00,
2013-12-15 05:56:00,41.1,40.3,29.72,WSW,251,0.0,0.0,97,0.01,OVC,,0.02,0.0,WeatherDisplay:10.37,2013-12-15 10:56:00,
2013-12-15 06:01:00,41.1,40.3,29.73,WSW,241,0.0,0.0,97,0.00,OVC,,0.02,0.0,WeatherDisplay:10.37,2013-12-15 11:01:00,
2013-12-15 06:11:00,41.1,40.3,29.74,SW,225,0.0,0.0,97,0.00,OVC,,0.02,0.0,WeatherDisplay:10.37,2013-12-15 11:11:00,
2013-12-15 06:16:00,41.2,40.4,29.75,SW,235,0.0,0.0,97,0.00,OVC,,0.02,0.0,WeatherDisplay:10.37,2013-12-15 11:16:00,
2013-12-15 06:21:00,41.2,40.4,29.77,SW,234,0.0,0.0,97,0.00,OVC,,0.02,0.0,WeatherDisplay:10.37,2013-12-15 11:21:00,
2013-12-15 06:26:00,41.2,40.4,29.77,SW,234,0.0,0.0,97,0.00,OVC,,0.02,0.0,WeatherDisplay:10.37,2013-12-15 11:26:00,
2013-12-15 06:31:00,41.3,40.5,29.76,WSW,249,0.0,0.0,97,0.00,OVC,,0.02,0.0,WeatherDisplay:10.37,2013-12-15 11:31:00,
2013-12-15 06:36:00,41.3,40.8,29.75,West,261,0.0,0.0,98,0.00,OVC,,0.02,0.0,WeatherDisplay:10.37,2013-12-15 11:36:00,
2013-12-15 06:41:00,41.5,41.0,29.75,West,262,0.0,0.0,98,0.00,OVC,,0.02,0.0,WeatherDisplay:10.37,2013-12-15 11:41:00,
2013-12-15 06:46:00,41.5,41.0,29.75,West,262,0.0,0.0,98,0.00,OVC,,0.02,0.0,WeatherDisplay:10.37,2013-12-15 11:46:00,
2013-12-15 06:51:00,41.5,41.0,29.75,West,261,0.0,0.0,98,0.00,OVC,,0.02,0.0,WeatherDisplay:10.37,2013-12-15 11:51:00,
2013-12-15 06:56:00,41.6,41.1,29.75,West,262,0.0,0.0,98,0.00,OVC,,0.02,0.0,WeatherDisplay:10.37,2013-12-15 11:56:00,
2013-12-15 07:01:00,41.6,41.1,29.76,West,262,0.0,0.0,98,0.00,OVC,,0.02,0.0,WeatherDisplay:10.37,2013-12-15 12:01:00,
2013-12-15 07:11:00,41.6,41.1,29.76,WSW,258,0.0,0.0,98,0.00,OVC,,0.02,0.0,WeatherDisplay:10.37,2013-12-15 12:11:00,
2013-12-15 07:16:00,41.8,41.3,29.76,WSW,244,0.0,0.0,98,0.00,OVC,,0.02,0.0,WeatherDisplay:10.37,2013-12-15 12:16:00,
2013-12-15 07:21:00,41.8,41.3,29.77,WSW,240,0.0,0.0,98,0.00,OVC,,0.02,0.0,WeatherDisplay:10.37,2013-12-15 12:21:00,
2013-12-15 07:26:00,41.8,41.3,29.77,WSW,245,0.0,0.0,98,0.00,OVC,,0.02,0.0,WeatherDisplay:10.37,2013-12-15 12:26:00,
2013-12-15 07:31:00,41.8,41.3,29.78,WSW,245,0.0,0.0,98,0.00,OVC,,0.02,0.0,WeatherDisplay:10.37,2013-12-15 12:31:00,
2013-12-15 07:36:00,41.9,41.4,29.79,WSW,244,0.0,0.0,98,0.00,OVC,,0.02,0.0,WeatherDisplay:10.37,2013-12-15 12:36:00,
2013-12-15 07:41:00,41.9,41.4,29.79,WSW,244,0.0,0.0,98,0.00,OVC,,0.02,0.0,WeatherDisplay:10.37,2013-12-15 12:41:00,
2013-12-15 07:46:00,41.9,41.4,29.78,WSW,250,0.0,0.0,98,0.00,OVC,,0.02,0.0,WeatherDisplay:10.37,2013-12-15 12:46:00,
2013-12-15 07:51:00,41.9,41.4,29.78,WSW,258,0.0,2.0,98,0.00,OVC,,0.02,0.0,WeatherDisplay:10.37,2013-12-15 12:51:00,
2013-12-15 07:56:00,41.9,41.4,29.78,West,261,0.0,5.0,98,0.00,OVC,,0.02,0.0,WeatherDisplay:10.37,2013-12-15 12:56:00,
2013-12-15 08:01:00,41.9,41.4,29.79,West,259,0.0,0.0,98,0.00,OVC,,0.02,5.8,WeatherDisplay:10.37,2013-12-15 13:01:00,
2013-12-15 08:11:00,41.9,41.4,29.79,West,259,0.0,0.0,98,0.00,OVC,,0.02,13.8,WeatherDisplay:10.37,2013-12-15 13:11:00,
2013-12-15 08:16:00,41.9,41.4,29.80,West,264,0.0,0.0,98,0.00,OVC,,0.02,16.1,WeatherDisplay:10.37,2013-12-15 13:16:00,
2013-12-15 08:21:00,42.1,41.6,29.81,West,271,0.0,0.0,98,0.00,OVC,,0.02,20.7,WeatherDisplay:10.37,2013-12-15 13:21:00,
2013-12-15 08:26:00,42.1,41.6,29.81,West,274,0.0,0.0,98,0.00,OVC,,0.02,24.1,WeatherDisplay:10.37,2013-12-15 13:26:00,
2013-12-15 08:31:00,42.1,41.6,29.81,SSW,202,0.0,0.0,98,0.00,OVC,,0.02,40.3,WeatherDisplay:10.37,2013-12-15 13:31:00,
2013-12-15 08:36:00,42.1,41.6,29.81,SW,225,0.0,0.0,98,0.00,OVC,,0.02,50.6,WeatherDisplay:10.37,2013-12-15 13:36:00,
2013-12-15 08:41:00,42.2,41.7,29.81,West,261,0.0,0.0,98,0.00,OVC,,0.02,32.2,WeatherDisplay:10.37,2013-12-15 13:41:00,
2013-12-15 08:46:00,42.2,41.7,29.81,West,261,0.0,0.0,98,0.00,OVC,,0.02,28.8,WeatherDisplay:10.37,2013-12-15 13:46:00,
2013-12-15 08:51:00,42.2,41.7,29.81,West,265,0.0,0.0,98,0.00,OVC,,0.02,29.9,WeatherDisplay:10.37,2013-12-15 13:51:00,
2013-12-15 08:56:00,42.3,41.8,29.81,WSW,258,0.0,0.0,98,0.00,OVC,,0.02,38.0,WeatherDisplay:10.37,2013-12-15 13:56:00,
2013-12-15 09:01:00,42.3,41.8,29.81,West,261,0.0,0.0,98,0.00,OVC,,0.02,36.8,WeatherDisplay:10.37,2013-12-15 14:01:00,
2013-12-15 09:11:00,42.5,42.0,29.82,West,277,0.0,0.0,98,0.00,OVC,,0.02,40.3,WeatherDisplay:10.37,2013-12-15 14:11:00,
2013-12-15 09:16:00,42.5,42.0,29.82,West,267,0.0,0.0,98,0.00,OVC,,0.02,44.9,WeatherDisplay:10.37,2013-12-15 14:16:00,
2013-12-15 09:21:00,42.5,42.0,29.83,WNW,290,0.0,0.0,98,0.00,OVC,,0.02,46.0,WeatherDisplay:10.37,2013-12-15 14:21:00,
2013-12-15 09:26:00,42.6,42.1,29.83,NW,316,0.0,0.0,98,0.00,OVC,,0.02,62.1,WeatherDisplay:10.37,2013-12-15 14:26:00,
2013-12-15 09:36:00,42.8,42.3,29.84,SSW,197,0.0,0.0,98,0.00,OVC,,0.02,85.1,WeatherDisplay:10.37,2013-12-15 14:36:00,
2013-12-15 09:41:00,42.8,42.3,29.84,SSW,208,0.0,0.0,98,0.00,OVC,,0.02,98.9,WeatherDisplay:10.37,2013-12-15 14:41:00,
2013-12-15 09:46:00,42.9,42.4,29.84,SW,223,0.0,0.0,98,0.00,BKN,,0.02,117.3,WeatherDisplay:10.37,2013-12-15 14:46:00,
2013-12-15 09:51:00,43.1,42.6,29.85,WSW,245,0.0,0.0,98,0.00,BKN,,0.02,133.4,WeatherDisplay:10.37,2013-12-15 14:51:00,
2013-12-15 09:56:00,43.3,42.7,29.85,WSW,248,0.0,0.0,98,0.00,BKN,,0.02,127.7,WeatherDisplay:10.37,2013-12-15 14:56:00,
2013-12-15 10:01:00,43.3,42.8,29.85,SW,221,0.0,0.0,98,0.00,BKN,,0.02,127.7,WeatherDisplay:10.37,2013-12-15 15:01:00,
2013-12-15 10:11:00,43.6,43.1,29.86,South,176,0.0,1.0,98,0.00,BKN,,0.02,123.0,WeatherDisplay:10.37,2013-12-15 15:11:00,
2013-12-15 10:16:00,43.8,43.3,29.86,SSW,210,0.0,0.0,98,0.00,SCT,,0.02,125.3,WeatherDisplay:10.37,2013-12-15 15:16:00,
2013-12-15 10:21:00,43.9,43.4,29.86,West,260,0.0,0.0,98,0.00,SCT,,0.02,143.8,WeatherDisplay:10.37,2013-12-15 15:21:00,
2013-12-15 10:26:00,44.1,43.6,29.86,West,265,0.0,0.0,98,0.00,SCT,,0.02,103.5,WeatherDisplay:10.37,2013-12-15 15:26:00,
2013-12-15 10:31:00,44.2,43.7,29.87,West,265,0.0,0.0,98,0.00,SCT,,0.02,138.0,WeatherDisplay:10.37,2013-12-15 15:31:00,
2013-12-15 10:36:00,44.3,43.8,29.87,West,260,0.0,0.0,98,0.00,SCT,,0.02,146.1,WeatherDisplay:10.37,2013-12-15 15:36:00,
2013-12-15 10:41:00,44.5,44.0,29.87,WSW,251,0.0,0.0,98,0.00,SCT,,0.02,154.1,WeatherDisplay:10.37,2013-12-15 15:41:00,
2013-12-15 10:46:00,44.6,44.1,29.87,SW,224,0.0,0.0,98,0.00,SCT,,0.02,186.3,WeatherDisplay:10.37,2013-12-15 15:46:00,
2013-12-15 10:51:00,44.8,44.3,29.87,SSW,210,0.0,0.0,98,0.00,SCT,,0.02,186.3,WeatherDisplay:10.37,2013-12-15 15:51:00,
2013-12-15 10:56:00,44.9,44.4,29.87,SW,229,0.0,0.0,98,0.00,SCT,,0.02,256.4,WeatherDisplay:10.37,2013-12-15 15:56:00,
2013-12-15 11:01:00,45.2,44.7,29.87,WSW,250,0.0,0.0,98,0.00,BKN,,0.02,194.3,WeatherDisplay:10.37,2013-12-15 16:01:00,
2013-12-15 11:11:00,45.5,45.0,29.86,West,260,0.0,0.0,98,0.00,BKN,,0.02,141.4,WeatherDisplay:10.37,2013-12-15 16:11:00,
2013-12-15 11:16:00,45.5,45.0,29.86,WSW,248,0.0,1.0,98,0.00,BKN,,0.02,196.7,WeatherDisplay:10.37,2013-12-15 16:16:00,
2013-12-15 11:21:00,45.4,44.9,29.86,SW,222,0.0,0.0,98,0.00,BKN,,0.02,254.2,WeatherDisplay:10.37,2013-12-15 16:21:00,
2013-12-15 11:26:00,45.8,45.2,29.86,SW,233,0.0,0.0,98,0.00,BKN,,0.02,192.1,WeatherDisplay:10.37,2013-12-15 16:26:00,
2013-12-15 11:31:00,46.1,45.6,29.86,WSW,255,0.0,0.0,98,0.00,BKN,,0.02,220.8,WeatherDisplay:10.37,2013-12-15 16:31:00,
2013-12-15 11:36:00,46.4,45.9,29.86,WSW,254,0.0,0.0,98,0.00,BKN,,0.02,196.7,WeatherDisplay:10.37,2013-12-15 16:36:00,
2013-12-15 11:41:00,46.7,46.2,29.86,WSW,254,0.0,0.0,98,0.00,BKN,,0.02,196.7,WeatherDisplay:10.37,2013-12-15 16:41:00,
2013-12-15 11:46:00,46.8,46.0,29.86,West,267,0.0,0.0,97,0.00,BKN,,0.02,196.7,WeatherDisplay:10.37,2013-12-15 16:46:00,
2013-12-15 11:51:00,47.1,46.3,29.85,WNW,286,0.0,0.0,97,0.00,BKN,,0.02,154.1,WeatherDisplay:10.37,2013-12-15 16:51:00,
2013-12-15 11:56:00,47.4,46.3,29.85,West,281,0.0,0.0,96,0.00,BKN,,0.02,159.8,WeatherDisplay:10.37,2013-12-15 16:56:00,
2013-12-15 12:01:00,47.6,46.5,29.85,WSW,256,0.0,3.0,96,0.00,SCT,,0.02,196.7,WeatherDisplay:10.37,2013-12-15 17:01:00,
2013-12-15 12:11:00,48.0,46.4,29.85,WSW,241,0.0,0.0,94,0.00,SCT,,0.02,254.2,WeatherDisplay:10.37,2013-12-15 17:11:00,
2013-12-15 12:16:00,48.3,46.4,29.85,WSW,243,0.0,0.0,93,0.00,SCT,,0.02,194.3,WeatherDisplay:10.37,2013-12-15 17:16:00,
2013-12-15 12:21:00,48.8,46.6,29.84,West,259,0.0,1.0,92,0.00,SCT,,0.02,396.8,WeatherDisplay:10.37,2013-12-15 17:21:00,
2013-12-15 12:26:00,49.3,46.5,29.84,NW,304,0.0,4.0,90,0.00,SCT,,0.02,232.3,WeatherDisplay:10.37,2013-12-15 17:26:00,
2013-12-15 12:31:00,49.9,46.7,29.84,West,263,0.0,4.0,89,0.00,SCT,,0.02,129.9,WeatherDisplay:10.37,2013-12-15 17:31:00,
2013-12-15 12:36:00,50.0,46.6,29.84,NW,312,0.0,3.0,88,0.00,SCT,,0.02,258.8,WeatherDisplay:10.37,2013-12-15 17:36:00,
2013-12-15 12:41:00,50.2,46.2,29.84,NW,304,0.0,3.0,86,0.00,SCT,,0.02,208.2,WeatherDisplay:10.37,2013-12-15 17:41:00,
2013-12-15 12:46:00,50.5,45.8,29.83,WNW,302,0.0,2.0,84,0.00,SCT,,0.02,269.1,WeatherDisplay:10.37,2013-12-15 17:46:00,
2013-12-15 12:51:00,51.2,45.9,29.83,WNW,297,0.0,3.0,82,0.00,SCT,,0.02,339.3,WeatherDisplay:10.37,2013-12-15 17:51:00,
2013-12-15 12:56:00,51.4,44.8,29.83,West,279,0.0,4.0,78,0.00,SCT,,0.02,285.2,WeatherDisplay:10.37,2013-12-15 17:56:00,
2013-12-15 13:01:00,51.9,43.9,29.83,West,270,0.0,1.0,74,0.00,SCT,,0.02,187.4,WeatherDisplay:10.37,2013-12-15 18:01:00,
2013-12-15 13:11:00,52.5,43.4,29.83,West,279,0.0,2.0,71,0.00,SCT,,0.02,175.9,WeatherDisplay:10.37,2013-12-15 18:11:00,
2013-12-15 13:16:00,52.6,42.7,29.83,WNW,283,0.0,4.0,69,0.00,SCT,,0.02,96.6,WeatherDisplay:10.37,2013-12-15 18:16:00,
2013-12-15 13:21:00,52.9,42.6,29.83,WNW,294,1.0,5.0,68,0.00,SCT,,0.02,179.4,WeatherDisplay:10.37,2013-12-15 18:21:00,
2013-12-15 13:26:00,52.9,42.2,29.83,West,268,0.0,1.0,67,0.00,SCT,,0.02,131.1,WeatherDisplay:10.37,2013-12-15 18:26:00,
2013-12-15 13:31:00,53.2,42.9,29.83,West,260,1.0,3.0,68,0.00,SCT,,0.02,155.3,WeatherDisplay:10.37,2013-12-15 18:31:00,
2013-12-15 13:36:00,53.3,42.2,29.83,WSW,258,0.0,2.0,66,0.00,SCT,,0.02,139.2,WeatherDisplay:10.37,2013-12-15 18:36:00,
2013-12-15 13:41:00,53.3,42.2,29.83,WNW,287,0.0,1.0,66,0.00,SCT,,0.02,127.7,WeatherDisplay:10.37,2013-12-15 18:41:00,
2013-12-15 13:46:00,53.5,42.8,29.84,NNE,17,0.0,0.0,67,0.00,SCT,,0.02,104.7,WeatherDisplay:10.37,2013-12-15 18:46:00,
2013-12-15 13:51:00,53.5,42.8,29.84,NNW,343,0.0,6.0,67,0.00,SCT,,0.02,104.7,WeatherDisplay:10.37,2013-12-15 18:51:00,
2013-12-15 13:56:00,53.6,42.1,29.84,NW,311,0.0,1.0,65,0.00,SCT,,0.02,157.6,WeatherDisplay:10.37,2013-12-15 18:56:00,
2013-12-15 14:01:00,53.8,41.9,29.84,NNW,332,0.0,3.0,64,0.00,SCT,,0.02,138.0,WeatherDisplay:10.37,2013-12-15 19:01:00,
2013-12-15 14:11:00,54.1,41.8,29.84,NNW,329,0.0,1.0,63,0.00,SCT,,0.02,71.3,WeatherDisplay:10.37,2013-12-15 19:11:00,
2013-12-15 14:16:00,54.1,40.9,29.85,WNW,287,1.0,5.0,61,0.00,SCT,,0.02,48.3,WeatherDisplay:10.37,2013-12-15 19:16:00,
2013-12-15 14:21:00,54.1,41.4,29.85,WNW,299,0.0,8.0,62,0.00,SCT,,0.02,80.5,WeatherDisplay:10.37,2013-12-15 19:21:00,
2013-12-15 14:26:00,53.9,39.9,29.85,WNW,294,0.0,1.0,59,0.00,SCT,,0.02,77.0,WeatherDisplay:10.37,2013-12-15 19:26:00,
2013-12-15 14:31:00,53.9,40.3,29.85,NW,326,1.0,5.0,60,0.00,SCT,,0.02,40.3,WeatherDisplay:10.37,2013-12-15 19:31:00,
2013-12-15 14:36:00,53.8,39.8,29.85,NW,313,0.0,1.0,59,0.00,SCT,,0.02,26.4,WeatherDisplay:10.37,2013-12-15 19:36:00,
2013-12-15 14:41:00,53.6,39.6,29.85,NW,319,0.0,1.0,59,0.00,SCT,,0.02,48.3,WeatherDisplay:10.37,2013-12-15 19:41:00,
2013-12-15 14:46:00,53.5,39.1,29.85,North,351,0.0,2.0,58,0.00,SCT,,0.02,40.3,WeatherDisplay:10.37,2013-12-15 19:46:00,
2013-12-15 14:51:00,53.3,38.0,29.86,NW,306,0.0,2.0,56,0.00,SCT,,0.02,38.0,WeatherDisplay:10.37,2013-12-15 19:51:00,
2013-12-15 14:56:00,53.3,39.3,29.86,NNE,16,0.0,1.0,59,0.00,SCT,,0.02,85.1,WeatherDisplay:10.37,2013-12-15 19:56:00,
2013-12-15 15:01:00,53.3,39.3,29.86,North,0,0.0,1.0,59,0.00,SCT,,0.02,88.5,WeatherDisplay:10.37,2013-12-15 20:01:00,
2013-12-15 15:11:00,53.3,38.0,29.86,NNW,330,0.0,2.0,56,0.00,SCT,,0.02,77.0,WeatherDisplay:10.37,2013-12-15 20:11:00,
2013-12-15 15:16:00,53.2,38.8,29.86,NW,311,0.0,0.0,58,0.00,SCT,,0.02,38.0,WeatherDisplay:10.37,2013-12-15 20:16:00,
2013-12-15 15:21:00,53.1,38.3,29.86,WNW,285,0.0,1.0,57,0.00,SCT,,0.02,42.5,WeatherDisplay:10.37,2013-12-15 20:21:00,
2013-12-15 15:26:00,53.1,38.3,29.86,NW,325,0.0,2.0,57,0.00,SCT,,0.02,56.4,WeatherDisplay:10.37,2013-12-15 20:26:00,
2013-12-15 15:31:00,52.9,38.1,29.87,NNE,26,0.0,0.0,57,0.00,SCT,,0.02,34.5,WeatherDisplay:10.37,2013-12-15 20:31:00,
2013-12-15 15:36:00,52.9,38.1,29.87,North,3,0.0,1.0,57,0.00,SCT,,0.02,36.8,WeatherDisplay:10.37,2013-12-15 20:36:00,
2013-12-15 15:41:00,52.8,38.4,29.87,NW,314,0.0,0.0,58,0.00,SCT,,0.02,29.9,WeatherDisplay:10.37,2013-12-15 20:41:00,
2013-12-15 15:46:00,52.6,38.2,29.88,WNW,293,0.0,3.0,58,0.00,SCT,,0.02,29.9,WeatherDisplay:10.37,2013-12-15 20:46:00,
2013-12-15 15:51:00,52.6,38.2,29.88,West,278,0.0,1.0,58,0.00,SCT,,0.02,32.2,WeatherDisplay:10.37,2013-12-15 20:51:00,
2013-12-15 15:56:00,52.5,38.6,29.88,WNW,282,0.0,1.0,59,0.00,SCT,,0.02,26.4,WeatherDisplay:10.37,2013-12-15 20:56:00,
2013-12-15 16:01:00,52.3,38.4,29.88,WNW,284,0.0,0.0,59,0.00,SCT,,0.02,28.8,WeatherDisplay:10.37,2013-12-15 21:01:00,
2013-12-15 16:11:00,51.8,36.6,29.89,NW,307,0.0,2.0,56,0.00,SCT,,0.02,20.7,WeatherDisplay:10.37,2013-12-15 21:11:00,
2013-12-15 16:16:00,51.6,36.9,29.89,WNW,290,0.0,4.0,57,0.00,SCT,,0.02,20.7,WeatherDisplay:10.37,2013-12-15 21:16:00,
2013-12-15 16:21:00,51.4,36.2,29.90,West,272,0.0,0.0,56,0.00,SCT,,0.02,18.4,WeatherDisplay:10.37,2013-12-15 21:21:00,
2013-12-15 16:26:00,51.1,36.9,29.90,West,271,0.0,0.0,58,0.00,SCT,,0.02,16.1,WeatherDisplay:10.37,2013-12-15 21:26:00,
2013-12-15 16:31:00,51.0,36.7,29.90,West,270,0.0,0.0,58,0.00,SCT,,0.02,13.8,WeatherDisplay:10.37,2013-12-15 21:31:00,
2013-12-15 16:36:00,50.8,36.1,29.91,West,267,0.0,2.0,57,0.00,SCT,,0.02,12.7,WeatherDisplay:10.37,2013-12-15 21:36:00,
2013-12-15 16:41:00,50.5,36.3,29.91,West,260,0.0,0.0,58,0.00,SCT,,0.02,12.7,WeatherDisplay:10.37,2013-12-15 21:41:00,
2013-12-15 16:46:00,50.4,36.6,29.92,WSW,248,0.0,0.0,59,0.00,SCT,,0.02,10.3,WeatherDisplay:10.37,2013-12-15 21:46:00,
2013-12-15 16:51:00,50.1,36.3,29.92,WSW,240,0.0,0.0,59,0.00,SCT,,0.02,8.1,WeatherDisplay:10.37,2013-12-15 21:51:00,
2013-12-15 16:56:00,49.8,36.5,29.92,WSW,249,0.0,0.0,60,0.00,SCT,,0.02,5.8,WeatherDisplay:10.37,2013-12-15 21:56:00,
2013-12-15 17:01:00,49.6,35.8,29.92,West,262,0.0,0.0,59,0.00,SCT,,0.02,0.0,WeatherDisplay:10.37,2013-12-15 22:01:00,
2013-12-15 17:11:00,49.1,35.8,29.92,West,267,0.0,0.0,60,0.00,SCT,,0.02,0.0,WeatherDisplay:10.37,2013-12-15 22:11:00,
2013-12-15 17:16:00,48.7,35.4,29.93,West,267,0.0,0.0,60,0.00,SCT,,0.02,0.0,WeatherDisplay:10.37,2013-12-15 22:16:00,
2013-12-15 17:21:00,48.3,35.0,29.93,WNW,283,0.0,0.0,60,0.00,SCT,,0.02,0.0,WeatherDisplay:10.37,2013-12-15 22:21:00,
2013-12-15 17:26:00,47.9,34.3,29.93,NNW,345,0.0,0.0,59,0.00,SCT,,0.02,0.0,WeatherDisplay:10.37,2013-12-15 22:26:00,
2013-12-15 17:31:00,47.7,34.5,29.94,North,9,0.0,0.0,60,0.00,SCT,,0.02,0.0,WeatherDisplay:10.37,2013-12-15 22:31:00,
2013-12-15 17:36:00,47.5,34.3,29.94,North,9,0.0,0.0,60,0.00,SCT,,0.02,0.0,WeatherDisplay:10.37,2013-12-15 22:36:00,
2013-12-15 17:41:00,47.3,34.1,29.94,North,9,0.0,0.0,60,0.00,SCT,,0.02,0.0,WeatherDisplay:10.37,2013-12-15 22:41:00,
2013-12-15 17:46:00,47.1,34.3,29.94,North,9,0.0,0.0,61,0.00,SCT,,0.02,0.0,WeatherDisplay:10.37,2013-12-15 22:46:00,
2013-12-15 17:51:00,46.8,34.0,29.95,North,9,0.0,0.0,61,0.00,SCT,,0.02,0.0,WeatherDisplay:10.37,2013-12-15 22:51:00,
2013-12-15 17:56:00,46.6,33.8,29.95,North,9,0.0,0.0,61,0.00,SCT,,0.02,0.0,WeatherDisplay:10.37,2013-12-15 22:56:00,
2013-12-15 18:01:00,46.4,34.5,29.95,North,9,0.0,0.0,63,0.00,FEW,,0.02,0.0,WeatherDisplay:10.37,2013-12-15 23:01:00,
2013-12-15 18:11:00,45.8,34.3,29.95,North,9,0.0,0.0,64,0.00,FEW,,0.02,0.0,WeatherDisplay:10.37,2013-12-15 23:11:00,
2013-12-15 18:16:00,45.6,34.1,29.96,North,9,0.0,0.0,64,0.00,FEW,,0.02,0.0,WeatherDisplay:10.37,2013-12-15 23:16:00,
2013-12-15 18:21:00,45.3,33.9,29.96,North,9,0.0,0.0,64,0.00,FEW,,0.02,0.0,WeatherDisplay:10.37,2013-12-15 23:21:00,
2013-12-15 18:26:00,44.9,34.2,29.96,North,9,0.0,0.0,66,0.00,FEW,,0.02,0.0,WeatherDisplay:10.37,2013-12-15 23:26:00,
2013-12-15 18:31:00,44.7,34.0,29.97,North,9,0.0,0.0,66,0.00,FEW,,0.02,0.0,WeatherDisplay:10.37,2013-12-15 23:31:00,
2013-12-15 18:36:00,44.4,34.1,29.97,North,9,0.0,0.0,67,0.00,FEW,,0.02,0.0,WeatherDisplay:10.37,2013-12-15 23:36:00,
2013-12-15 18:41:00,44.2,33.9,29.97,North,9,0.0,0.0,67,0.00,FEW,,0.02,0.0,WeatherDisplay:10.37,2013-12-15 23:41:00,
2013-12-15 18:46:00,43.9,34.0,29.97,North,9,0.0,0.0,68,0.00,FEW,,0.02,0.0,WeatherDisplay:10.37,2013-12-15 23:46:00,
2013-12-15 18:51:00,43.6,34.1,29.97,North,9,0.0,0.0,69,0.00,FEW,,0.02,0.0,WeatherDisplay:10.37,2013-12-15 23:51:00,
2013-12-15 18:56:00,43.2,34.1,29.97,North,9,0.0,0.0,70,0.00,FEW,,0.02,0.0,WeatherDisplay:10.37,2013-12-15 23:56:00,
2013-12-15 19:01:00,42.9,34.1,29.98,North,9,0.0,0.0,71,0.00,FEW,,0.02,0.0,WeatherDisplay:10.37,2013-12-16 00:01:00,
2013-12-15 19:11:00,42.5,33.8,29.98,North,9,0.0,0.0,71,0.00,FEW,,0.02,0.0,WeatherDisplay:10.37,2013-12-16 00:11:00,
2013-12-15 19:16:00,42.3,33.9,29.99,North,9,0.0,0.0,72,0.00,FEW,,0.02,0.0,WeatherDisplay:10.37,2013-12-16 00:16:00,
2013-12-15 19:21:00,42.1,33.7,29.99,North,9,0.0,0.0,72,0.00,FEW,,0.02,0.0,WeatherDisplay:10.37,2013-12-16 00:21:00,
2013-12-15 19:26:00,41.9,33.2,29.99,North,9,0.0,0.0,71,0.00,FEW,,0.02,0.0,WeatherDisplay:10.37,2013-12-16 00:26:00,
2013-12-15 19:31:00,41.8,33.1,30.00,North,9,0.0,0.0,71,0.00,FEW,,0.02,0.0,WeatherDisplay:10.37,2013-12-16 00:31:00,
2013-12-15 19:36:00,41.7,33.0,30.00,North,9,0.0,0.0,71,0.00,FEW,,0.02,0.0,WeatherDisplay:10.37,2013-12-16 00:36:00,
2013-12-15 19:41:00,41.6,33.2,30.00,North,9,0.0,0.0,72,0.00,FEW,,0.02,0.0,WeatherDisplay:10.37,2013-12-16 00:41:00,
2013-12-15 19:46:00,41.5,33.1,30.00,North,9,0.0,0.0,72,0.00,FEW,,0.02,0.0,WeatherDisplay:10.37,2013-12-16 00:46:00,
2013-12-15 19:51:00,41.4,33.1,30.00,North,9,0.0,0.0,72,0.00,FEW,,0.02,0.0,WeatherDisplay:10.37,2013-12-16 00:51:00,
2013-12-15 19:56:00,41.3,32.6,30.00,North,9,0.0,0.0,71,0.00,FEW,,0.02,0.0,WeatherDisplay:10.37,2013-12-16 00:56:00,
2013-12-15 20:01:00,41.2,32.5,30.01,North,9,0.0,0.0,71,0.00,FEW,,0.02,0.0,WeatherDisplay:10.37,2013-12-16 01:01:00,
2013-12-15 20:11:00,41.2,32.5,30.01,NNE,15,0.0,0.0,71,0.00,FEW,,0.02,0.0,WeatherDisplay:10.37,2013-12-16 01:11:00,
2013-12-15 20:16:00,41.2,32.2,30.01,NE,38,0.0,0.0,70,0.00,FEW,,0.02,0.0,WeatherDisplay:10.37,2013-12-16 01:16:00,
2013-12-15 20:21:00,41.1,32.1,30.01,NE,47,0.0,0.0,70,0.00,FEW,,0.02,0.0,WeatherDisplay:10.37,2013-12-16 01:21:00,
2013-12-15 20:26:00,41.1,31.7,30.01,NNE,31,0.0,0.0,69,0.00,FEW,,0.02,0.0,WeatherDisplay:10.37,2013-12-16 01:26:00,
2013-12-15 20:31:00,41.1,31.7,30.01,NNE,28,0.0,0.0,69,0.00,FEW,,0.02,0.0,WeatherDisplay:10.37,2013-12-16 01:31:00,
2013-12-15 20:41:00,40.9,31.5,30.02,NNE,29,0.0,0.0,69,0.00,FEW,,0.02,0.0,WeatherDisplay:10.37,2013-12-16 01:41:00,
2013-12-15 20:46:00,40.8,31.4,30.02,NNE,31,0.0,0.0,69,0.00,FEW,,0.02,0.0,WeatherDisplay:10.37,2013-12-16 01:46:00,
2013-12-15 20:51:00,40.8,31.4,30.03,NNE,31,0.0,0.0,69,0.00,FEW,,0.02,0.0,WeatherDisplay:10.37,2013-12-16 01:51:00,
2013-12-15 20:56:00,40.6,31.6,30.03,NNE,31,0.0,0.0,70,0.00,FEW,,0.02,0.0,WeatherDisplay:10.37,2013-12-16 01:56:00,
2013-12-15 21:01:00,40.5,31.5,30.03,NNE,31,0.0,0.0,70,0.00,CLR,,0.02,0.0,WeatherDisplay:10.37,2013-12-16 02:01:00,
2013-12-15 21:11:00,40.2,31.2,30.03,NNE,30,0.0,0.0,70,0.00,CLR,,0.02,0.0,WeatherDisplay:10.37,2013-12-16 02:11:00,
2013-12-15 21:16:00,40.1,30.7,30.03,NNE,30,0.0,0.0,69,0.00,CLR,,0.02,0.0,WeatherDisplay:10.37,2013-12-16 02:16:00,
2013-12-15 21:21:00,39.9,30.5,30.03,NNE,30,0.0,0.0,69,0.00,CLR,,0.02,0.0,WeatherDisplay:10.37,2013-12-16 02:21:00,
2013-12-15 21:26:00,39.9,30.5,30.03,NNE,30,0.0,0.0,69,0.00,CLR,,0.02,0.0,WeatherDisplay:10.37,2013-12-16 02:26:00,
2013-12-15 21:31:00,39.9,30.9,30.03,NNE,30,0.0,0.0,70,0.00,CLR,,0.02,0.0,WeatherDisplay:10.37,2013-12-16 02:31:00,
2013-12-15 21:36:00,39.8,30.8,30.04,NNE,30,0.0,0.0,70,0.00,CLR,,0.02,0.0,WeatherDisplay:10.37,2013-12-16 02:36:00,
2013-12-15 21:41:00,39.6,30.6,30.04,NNE,30,0.0,0.0,70,0.00,CLR,,0.02,0.0,WeatherDisplay:10.37,2013-12-16 02:41:00,
2013-12-15 21:46:00,39.5,30.9,30.05,NNE,30,0.0,0.0,71,0.00,CLR,,0.02,0.0,WeatherDisplay:10.37,2013-12-16 02:46:00,
2013-12-15 21:51:00,39.3,30.7,30.05,NNE,30,0.0,0.0,71,0.00,CLR,,0.02,0.0,WeatherDisplay:10.37,2013-12-16 02:51:00,
2013-12-15 21:56:00,39.2,30.5,30.05,NNE,30,0.0,0.0,71,0.00,CLR,,0.02,0.0,WeatherDisplay:10.37,2013-12-16 02:56:00,
2013-12-15 22:01:00,39.0,30.4,30.05,NNE,30,0.0,0.0,71,0.00,CLR,,0.02,0.0,WeatherDisplay:10.37,2013-12-16 03:01:00,
2013-12-15 22:11:00,38.8,30.5,30.05,NNE,30,0.0,0.0,72,0.00,CLR,,0.02,0.0,WeatherDisplay:10.37,2013-12-16 03:11:00,
2013-12-15 22:16:00,38.6,30.3,30.05,NNE,30,0.0,0.0,72,0.00,CLR,,0.02,0.0,WeatherDisplay:10.37,2013-12-16 03:16:00,
2013-12-15 22:21:00,38.5,30.2,30.06,NNE,30,0.0,0.0,72,0.00,CLR,,0.02,0.0,WeatherDisplay:10.37,2013-12-16 03:21:00,
2013-12-15 22:31:00,38.2,30.3,30.06,NNE,30,0.0,0.0,73,0.00,CLR,,0.02,0.0,WeatherDisplay:10.37,2013-12-16 03:31:00,
2013-12-15 22:36:00,38.0,30.4,30.06,NNE,30,0.0,0.0,74,0.00,CLR,,0.02,0.0,WeatherDisplay:10.37,2013-12-16 03:36:00,
2013-12-15 22:41:00,37.9,30.7,30.06,NNE,30,0.0,0.0,75,0.00,CLR,,0.02,0.0,WeatherDisplay:10.37,2013-12-16 03:41:00,
2013-12-15 22:46:00,37.8,30.5,30.06,NNE,30,0.0,0.0,75,0.00,CLR,,0.02,0.0,WeatherDisplay:10.37,2013-12-16 03:46:00,
2013-12-15 22:51:00,37.6,30.4,30.06,NNE,30,0.0,0.0,75,0.00,CLR,,0.02,0.0,WeatherDisplay:10.37,2013-12-16 03:51:00,
2013-12-15 22:56:00,37.3,30.4,30.06,NNE,30,0.0,0.0,76,0.00,CLR,,0.02,0.0,WeatherDisplay:10.37,2013-12-16 03:56:00,
2013-12-15 23:06:00,37.0,30.5,30.06,NNE,30,0.0,0.0,77,0.00,CLR,,0.02,0.0,WeatherDisplay:10.37,2013-12-16 04:06:00,
2013-12-15 23:11:00,36.9,30.4,30.06,NNE,30,0.0,0.0,77,0.00,CLR,,0.02,0.0,WeatherDisplay:10.37,2013-12-16 04:11:00,
2013-12-15 23:16:00,36.8,30.3,30.07,NNE,30,0.0,0.0,77,0.00,CLR,,0.02,0.0,WeatherDisplay:10.37,2013-12-16 04:16:00,
2013-12-15 23:21:00,36.5,30.3,30.07,NNE,30,0.0,0.0,78,0.00,CLR,,0.02,0.0,WeatherDisplay:10.37,2013-12-16 04:21:00,
2013-12-15 23:26:00,36.3,30.1,30.07,NNE,30,0.0,0.0,78,0.00,CLR,,0.02,0.0,WeatherDisplay:10.37,2013-12-16 04:26:00,
2013-12-15 23:31:00,36.2,30.0,30.06,NNE,30,0.0,0.0,78,0.00,CLR,,0.02,0.0,WeatherDisplay:10.37,2013-12-16 04:31:00,
2013-12-15 23:36:00,36.2,30.0,30.06,NNE,30,0.0,0.0,78,0.00,CLR,,0.02,0.0,WeatherDisplay:10.37,2013-12-16 04:36:00,
2013-12-15 23:41:00,36.0,29.8,30.06,NNE,30,0.0,0.0,78,0.00,CLR,,0.02,0.0,WeatherDisplay:10.37,2013-12-16 04:41:00,
2013-12-15 23:46:00,35.9,29.7,30.07,NNE,30,0.0,0.0,78,0.00,CLR,,0.02,0.0,WeatherDisplay:10.37,2013-12-16 04:46:00,
2013-12-15 23:51:00,35.9,30.0,30.07,NNE,30,0.0,0.0,79,0.00,CLR,,0.02,0.0,WeatherDisplay:10.37,2013-12-16 04:51:00,
2013-12-15 23:56:00,35.8,29.6,30.07,NNE,30,0.0,0.0,78,0.00,CLR,,0.02,0.0,WeatherDisplay:10.37,2013-12-16 04:56:00,